This demonstration page uses our WeatherBlox Daily Observations layout. Learn more.

Left ArrowRight Arrow

Hourly Observations for January 2, 2017

Temp ( °F °C ) Dew Point ( °F °C ) Humidity (%) Winds ( mph kmh ) Pressure ( in mb ) Visibility ( mi km ) Precip ( " mm )
12:15 am 00:15 Cloudy 43 6 34 1 71 71 undefined N/A 30.39 1029 10 16 N/A
12:35 am 00:35 Cloudy with Light Rain 43 6 36 2 76 76 N N/A 30.39 1029 10 16 N/A
12:55 am 00:55 Cloudy with Rain 41 5 37 3 87 87 N N/A 30.39 1029 5 8 0.02 0.51
1:15 am 01:15 Cloudy with Light Rain 41 5 37 3 87 87 N N/A 30.39 1029 10 16 0.01 0.25
1:35 am 01:35 Cloudy with Light Rain 41 5 39 4 93 93 undefined N/A 30.39 1029 10 16 0.01 0.25
1:55 am 01:55 Cloudy with Light Rain 41 5 39 4 93 93 N N/A 30.42 1030 5 8 0.03 0.76
2:15 am 02:15 Cloudy with Light Rain 41 5 39 4 93 93 N N/A 30.42 1030 7 11 0.01 0.25
2:35 am 02:35 Cloudy with Drizzle 41 5 39 4 93 93 NE 5 7 30.42 1030 5 8 0.02 0.51
2:55 am 02:55 Cloudy with Light Rain 41 5 41 5 100 100 ENE 5 7 30.42 1030 10 16 0.02 0.51
3:15 am 03:15 Cloudy with Rain 41 5 41 5 100 100 undefined N/A 30.42 1030 7 11 0.01 0.25
3:35 am 03:35 Cloudy with Mist and Fog 41 5 41 5 100 100 NE 3 6 30.42 1030 5 8 0.01 0.25
3:55 am 03:55 Cloudy with Light Rain 41 5 41 5 100 100 ENE 3 6 30.42 1030 4 6 0.01 0.25
4:15 am 04:15 Cloudy with Light Rain 41 5 41 5 100 100 ENE 6 9 30.42 1030 4 6 0.01 0.25
4:35 am 04:35 Cloudy with Light Rain 41 5 41 5 100 100 ENE 6 9 30.39 1029 3 5 0.01 0.25
4:55 am 04:55 Cloudy with Light Rain 41 5 41 5 100 100 undefined N/A 30.42 1030 3 4 0.02 0.51
5:15 am 05:15 Cloudy with Light Rain 41 5 41 5 100 100 undefined N/A 30.42 1030 3 5 0.01 0.25
5:35 am 05:35 Cloudy with Light Rain 41 5 41 5 100 100 undefined N/A 30.42 1030 3 4 0.01 0.25
5:55 am 05:55 Cloudy with Drizzle 41 5 41 5 100 100 undefined N/A 30.42 1030 2 3 0.01 0.25
6:15 am 06:15 Cloudy with Light Rain 41 5 41 5 100 100 undefined N/A 30.42 1030 2 3 0.01 0.25
6:35 am 06:35 Cloudy with Mist and Fog 41 5 41 5 100 100 undefined N/A 30.39 1029 2 3 0.01 0.25
6:55 am 06:55 Cloudy with Light Rain 41 5 41 5 100 100 ENE 3 6 30.39 1029 3 4 0.02 0.51
7:15 am 07:15 Cloudy with Rain 41 5 41 5 100 100 undefined N/A 30.39 1029 2 3 0.01 0.25
7:35 am 07:35 Cloudy with Rain 41 5 41 5 100 100 undefined N/A 30.39 1029 2 3 0.02 0.51
7:55 am 07:55 Cloudy with Drizzle 41 5 41 5 100 100 N N/A 30.39 1029 2 3 0.02 0.51
8:15 am 08:15 Cloudy with Mist and Fog 41 5 41 5 100 100 N N/A 30.39 1029 1 2 0.01 0.25
8:35 am 08:35 Cloudy with Mist and Fog 41 5 41 5 100 100 undefined N/A 30.42 1030 2 2 0.01 0.25
8:55 am 08:55 Cloudy with Drizzle 41 5 41 5 100 100 N 3 6 30.42 1030 1 2 0.01 0.25
9:15 am 09:15 Cloudy with Light Rain 41 5 41 5 100 100 NE 3 6 30.42 1030 1 2 N/A
9:35 am 09:35 Cloudy with Light Rain 41 5 41 5 100 100 NE 3 6 30.42 1030 2 2 N/A
9:55 am 09:55 Cloudy with Drizzle 41 5 41 5 100 100 NE 3 6 30.42 1030 2 2 N/A
10:15 am 10:15 Cloudy with Rain 43 6 43 6 100 100 NE 3 6 30.42 1030 2 3 0.01 0.25
10:35 am 10:35 Cloudy with Light Rain 43 6 43 6 100 100 N N/A 30.42 1030 2 3 0.01 0.25
11:15 am 11:15 Cloudy with Drizzle 43 6 43 6 100 100 N N/A 30.39 1029 1 2 0.01 0.25
11:35 am 11:35 Cloudy with Drizzle 43 6 43 6 100 100 NNE 3 6 30.39 1029 1 2 0.02 0.51
11:55 am 11:55 Cloudy with Light Rain 43 6 43 6 100 100 NNE 5 7 30.36 1028 1 2 0.03 0.76
12:15 pm 12:15 Cloudy with Light Rain 43 6 43 6 100 100 NNE 6 9 30.36 1028 1 2 0.01 0.25
12:35 pm 12:35 Cloudy with Drizzle 41 5 41 5 100 100 NNE 9 15 30.36 1028 2 2 0.01 0.25
12:55 pm 12:55 Cloudy with Light Rain 41 5 41 5 100 100 NE 6 9 30.33 1027 1 2 0.02 0.51
1:15 pm 13:15 Cloudy with Drizzle 43 6 43 6 100 100 N 8 13 30.33 1027 1 2 N/A
1:35 pm 13:35 Cloudy with Mist and Fog 43 6 43 6 100 100 NNE 8 13 30.33 1027 2 2 N/A
1:55 pm 13:55 Cloudy with Mist and Fog 41 5 41 5 100 100 NNE 8 13 30.33 1027 2 2 0.01 0.25
2:15 pm 14:15 Cloudy with Mist and Fog 41 5 41 5 100 100 NNE 8 13 30.33 1027 2 2 N/A
2:35 pm 14:35 Cloudy with Mist and Fog 41 5 41 5 100 100 NNE 6 9 30.33 1027 2 3 N/A
2:55 pm 14:55 Cloudy with Drizzle 41 5 41 5 100 100 NNE 8 13 30.33 1027 2 2 N/A
3:15 pm 15:15 Cloudy with Drizzle 41 5 41 5 100 100 NNE 8 13 30.33 1027 2 3 N/A
3:35 pm 15:35 Cloudy with Mist and Fog 41 5 41 5 100 100 NNE 8 13 30.33 1027 2 3 N/A
3:55 pm 15:55 Cloudy with Mist and Fog 41 5 41 5 100 100 NNE 6 9 30.33 1027 2 3 N/A
4:15 pm 16:15 Cloudy with Mist and Fog 43 6 43 6 100 100 NNE 7 11 30.30 1026 2 3 N/A
4:35 pm 16:35 Cloudy with Mist and Fog 43 6 43 6 100 100 NNE 6 9 30.30 1026 2 3 N/A
4:55 pm 16:55 Cloudy with Mist and Fog 43 6 43 6 100 100 N 8 13 30.33 1027 3 4 N/A
5:15 pm 17:15 Cloudy with Mist and Fog 43 6 43 6 100 100 NNE 7 11 30.30 1026 3 4 N/A
5:35 pm 17:35 Cloudy with Mist and Fog 43 6 43 6 100 100 NNE 8 13 30.30 1026 2 3 N/A
5:55 pm 17:55 Cloudy with Mist and Fog 41 5 41 5 100 100 NNE 7 11 30.30 1026 2 3 N/A
6:15 pm 18:15 Cloudy with Mist and Fog 43 6 43 6 100 100 NNE 6 9 30.30 1026 2 2 N/A
6:35 pm 18:35 Cloudy with Mist and Fog 43 6 43 6 100 100 NNE 6 9 30.30 1026 2 2 N/A
6:55 pm 18:55 Cloudy with Mist and Fog 43 6 43 6 100 100 NNE 7 11 30.30 1026 2 3 0.01 0.25
7:15 pm 19:15 Cloudy with Mist and Fog 41 5 41 5 100 100 NNE 6 9 30.30 1026 2 2 N/A
7:35 pm 19:35 Cloudy with Mist and Fog 41 5 41 5 100 100 NNE 6 9 30.30 1026 2 3 N/A
7:55 pm 19:55 Cloudy with Mist and Fog 41 5 41 5 100 100 NNE 5 7 30.27 1025 2 2 N/A
8:15 pm 20:15 Cloudy with Mist and Fog 41 5 41 5 100 100 NNE 6 9 30.27 1025 2 3 N/A
8:35 pm 20:35 Cloudy with Mist and Fog 41 5 41 5 100 100 NNE 6 9 30.27 1025 2 3 N/A
8:55 pm 20:55 Cloudy with Mist and Fog 41 5 41 5 100 100 N 5 7 30.27 1025 2 3 N/A
9:15 pm 21:15 Cloudy with Mist and Fog 43 6 43 6 100 100 NNE 5 7 30.27 1025 2 3 N/A
9:35 pm 21:35 Cloudy with Mist and Fog 41 5 41 5 100 100 NNE 6 9 30.27 1025 2 2 N/A
9:55 pm 21:55 Cloudy with Drizzle 41 5 41 5 100 100 NNE 7 11 30.27 1025 2 2 N/A
10:15 pm 22:15 Cloudy with Mist and Fog 41 5 41 5 100 100 N 6 9 30.27 1025 2 3 0.01 0.25
10:35 pm 22:35 Cloudy with Mist and Fog 41 5 41 5 100 100 N 3 6 30.24 1024 2 3 0.01 0.25
10:55 pm 22:55 Cloudy with Mist and Fog 41 5 41 5 100 100 undefined N/A 30.24 1024 2 3 0.01 0.25
11:15 pm 23:15 Cloudy with Mist and Fog 41 5 41 5 100 100 NNE 8 13 30.24 1024 2 2 N/A
11:35 pm 23:35 Cloudy with Mist and Fog 41 5 41 5 100 100 NNE 7 11 30.21 1023 2 2 N/A
11:55 pm 23:55 Cloudy with Mist and Fog 41 5 41 5 100 100 NNE 5 7 30.21 1023 2 3 N/A

Powered by AerisWeather